Location: Brachbach
(49.1847°N, 9.7240°E)
Time: 13:24:47
(UTC+00:00)

CZ-2C R/B - Pass Details

Date: 11 August 2024
Orbit: 782 x 869 km, 98.3° (Epoch: 15 September)

Event Time Altitude Azimuth Distance (km) Brightness Sun altitude
Exits shadow 02:11:54 24° 234° (SW) 1,681 3.7 -16.0°
Maximum altitude 02:13:43 30° 266° (W) 1,497 3.6 -15.8°
Drops below altitude 10° 02:18:28 10° 327° (NNW) 2,460 5.3 -15.3°
Sets 02:21:07 0° 338° (NNW) 3,384 6.2 -15.0°
